Location: Austin
(30.3000°N, 97.7500°W)
Time: 03:46:44
(UTC-05:00)

Exosat Rocket - Pass Details

Date: 18 March 2023
Orbit: 760 x 2515 km, 72.3° (Epoch: 01 April)

Event Time Altitude Azimuth Distance (km) Brightness Sun altitude
Rises 20:22:00 0° 182° (S) 3,284 6.7 -9.6°
Reaches altitude 10° 20:24:27 10° 176° (S) 2,300 5.9 -10.2°
Maximum altitude 20:29:11 45° 103° (ESE) 1,030 3.7 -11.2°
Drops below altitude 10° 20:34:14 10° 31° (NNE) 2,457 5.9 -12.3°
Sets 20:36:56 0° 26° (NNE) 3,535 6.7 -12.8°
